sat.trackr.live / text

‹ back to catalog

STARLINK-34777

NORAD 65339 · 2025-189S

PAYLOAD ACTIVE UNKNOWN

§ Identity

Operator
Country
US
Launch date
2025-08-27
Launch site
AFETR
Launch vehicle
Mass (kg)
RCS (m²)

Purposes: comms

External: N2YO · Heavens-Above · Gunter

§ Orbital elements

Epoch: 2026-05-25T04:53:52.821312Z

Period
94.01 min
Inclination
53.1575°
Eccentricity
0.0000946
Mean motion
15.31718840 rev/d
Perigee alt
470.0 km
Apogee alt
471.3 km
Semi-major
6,848.8 km
B*
5.5632e-4
RAAN
211.1883°
Arg perigee
70.1514°
Mean anomaly
289.9589°
Rev number
4,283

§ Raw data

STARLINK-347771 65339U 25189S   26145.20408358  .00016948  00000+0  55632-3 0  99902 65339  53.1575 211.1883 0000946  70.1514 289.9589 15.31718840 42830

JSON: /api/v1/satellites/65339 · /tle

For live sub-satellite position, see the globe view (requires WebGL).

§ Visibility from observer

Set your observer location to see the next 7 days of passes ≥ 10°. The values pass through the URL so the page stays shareable.

No JS? Fill the form by hand. The geolocation button needs JavaScript.